Location: Clarion
(42.7316°N, 93.7330°W)
Time: 22:10:47
(UTC+00:00)

Cosmos 2360 Rocket - Pass Details

Date: 22 April 2026
Orbit: 831 x 845 km, 71.0° (Epoch: 12 May)

Event Time Altitude Azimuth Distance (km) Brightness Sun altitude
Rises 07:32:59 0° 344° (NNW) 3,412 6.0 -32.1°
Reaches altitude 10° 07:35:55 10° 358° (N) 2,474 5.3 -31.9°
Maximum altitude 07:40:30 25° 52° (NE) 1,660 4.2 -31.5°
Drops below altitude 10° 07:45:05 10° 106° (ESE) 2,464 4.7 -31.2°
Enters shadow 07:47:34 - 118° (ESE) 3,256 5.2 -31.0°
